Overview Statistics Trail Chart Weather Telemetry Raw packets
 

This is the latest recevied weather packets stored in our database for station/object N0QV. If no packets are shown the sender has not sent any weather packets the latest 10 day(s).

<< 97 98 99 100 101 102 103 >>
Time Temp. Humidity Pressure Rain* Wind** Luminosity Snow
1787946039 28.89° C 52% 1018.8 hPa 0 mm - 605 W/m² -
1787945738 28.33° C 52% 1019 hPa 0 mm - 628 W/m² -
1787945434 28.33° C 55% 1019.1 hPa 0 mm - 529 W/m² -
1787945129 27.78° C 57% 1019.2 hPa 0 mm - 566 W/m² -
1787944826 27.78° C 55% 1019.3 hPa 0 mm - 606 W/m² -
1787944521 27.22° C 58% 1019.3 hPa 0 mm - 589 W/m² -
1787944218 27.22° C 58% 1019.4 hPa 0 mm - 360 W/m² -
1787943917 27.22° C 58% 1019.2 hPa 0 mm - 361 W/m² -
1787943613 26.67° C 59% 1019.4 hPa 0 mm - 333 W/m² -
1787943313 27.22° C 59% 1019.7 hPa 0 mm - 276 W/m² -
1787943008 26.67° C 59% 1019.4 hPa 0 mm - 278 W/m² -
1787942703 26.67° C 59% 1019.6 hPa 0 mm - 265 W/m² -
1787942402 27.22° C 58% 1019.6 hPa 0 mm - 285 W/m² -
1787942097 27.22° C 57% 1019.8 hPa 0 mm - 265 W/m² -
1787941793 27.22° C 58% 1020 hPa 0 mm - 280 W/m² -
1787941492 26.67° C 59% 1019.9 hPa 0 mm - 295 W/m² -
1787941192 26.67° C 58% 1020 hPa 0 mm - 312 W/m² -
1787940886 27.22° C 58% 1019.9 hPa 0 mm - 294 W/m² -
1787940585 27.78° C 57% 1019.9 hPa 0 mm - 462 W/m² -
1787940284 27.22° C 58% 1020.1 hPa 0 mm - 462 W/m² -
1787939984 27.22° C 58% 1019.9 hPa 0 mm - 531 W/m² -
1787939678 26.67° C 58% 1020 hPa 0 mm - 491 W/m² -
1787939381 27.22° C 58% 1019.8 hPa 0 mm - 554 W/m² -
1787939074 27.78° C 56% 1019.9 hPa 0 mm - 671 W/m² -
1787938772 27.22° C 58% 1020 hPa 0 mm - 606 W/m² -

* Rain latest hour (hover to see other rain measurements)
** Current wind speed in m/s (hover to see current wind gust speed)